Date_Time,Julian_Date,Latitude,Longitude,Instrument_Depth,U,V,Speed,Direction
(yyyy-mm-dd hh:mn:ss UTC),(JD),(+ deg. North),(+ deg. East),(m),(cm/s),(cm/s),(cm/s),(deg True)
1981-12-15 23:30:00 UTC,2444954.479167,29.6417,-93.6667,0076,-0.12,7.00,7.0000,359.0000
1981-12-16 00:00:00 UTC,2444954.500000,29.6417,-93.6667,0076,-0.44,4.98,5.0000,355.0000
1981-12-16 00:30:00 UTC,2444954.520833,29.6417,-93.6667,0076,-0.90,3.90,4.0000,347.0000
1981-12-16 01:00:00 UTC,2444954.541667,29.6417,-93.6667,0076,-0.76,3.93,4.0000,349.0000
1981-12-16 01:30:00 UTC,2444954.562500,29.6417,-93.6667,0076,-0.16,3.00,3.0000,357.0000
1981-12-16 02:00:00 UTC,2444954.583333,29.6417,-93.6667,0076,-0.07,2.00,2.0000,358.0000
1981-12-16 02:30:00 UTC,2444954.604167,29.6417,-93.6667,0076,-0.42,1.96,2.0000,348.0000
1981-12-16 03:00:00 UTC,2444954.625000,29.6417,-93.6667,0076,-0.16,3.00,3.0000,357.0000
1981-12-16 03:30:00 UTC,2444954.645833,29.6417,-93.6667,0076,0.62,2.93,3.0000,12.0000
1981-12-16 04:00:00 UTC,2444954.666667,29.6417,-93.6667,0076,1.12,2.78,3.0000,22.0000
1981-12-16 04:30:00 UTC,2444954.687500,29.6417,-93.6667,0076,1.12,2.78,3.0000,22.0000
1981-12-16 05:00:00 UTC,2444954.708333,29.6417,-93.6667,0076,1.69,3.63,4.0000,25.0000
1981-12-16 05:30:00 UTC,2444954.729167,29.6417,-93.6667,0076,2.35,3.24,4.0000,36.0000
1981-12-16 06:00:00 UTC,2444954.750000,29.6417,-93.6667,0076,3.15,3.89,5.0000,39.0000
1981-12-16 06:30:00 UTC,2444954.770833,29.6417,-93.6667,0076,3.71,5.94,7.0000,32.0000
1981-12-16 07:00:00 UTC,2444954.791667,29.6417,-93.6667,0076,4.12,6.86,8.0000,31.0000
1981-12-16 07:30:00 UTC,2444954.812500,29.6417,-93.6667,0076,3.61,6.00,7.0000,31.0000
1981-12-16 08:00:00 UTC,2444954.833333,29.6417,-93.6667,0076,2.44,5.48,6.0000,24.0000
1981-12-16 08:30:00 UTC,2444954.854167,29.6417,-93.6667,0076,3.00,7.42,8.0000,22.0000
1981-12-16 09:00:00 UTC,2444954.875000,29.6417,-93.6667,0076,3.63,7.13,8.0000,27.0000
1981-12-16 09:30:00 UTC,2444954.895833,29.6417,-93.6667,0076,3.44,4.91,6.0000,35.0000
1981-12-16 10:00:00 UTC,2444954.916667,29.6417,-93.6667,0076,2.83,2.83,4.0000,45.0000
1981-12-16 10:30:00 UTC,2444954.937500,29.6417,-93.6667,0076,2.60,1.50,3.0000,60.0000
1981-12-16 11:00:00 UTC,2444954.958333,29.6417,-93.6667,0076,1.00,-0.03,1.0000,92.0000
1981-12-16 11:30:00 UTC,2444954.979167,29.6417,-93.6667,0076,0.79,-0.62,1.0000,128.0000
1981-12-16 12:00:00 UTC,2444955.000000,29.6417,-93.6667,0076,0.53,-0.85,1.0000,148.0000
1981-12-16 12:30:00 UTC,2444955.020833,29.6417,-93.6667,0076,0.56,-0.83,1.0000,146.0000
1981-12-16 13:00:00 UTC,2444955.041667,29.6417,-93.6667,0076,1.63,-2.52,3.0000,147.0000
1981-12-16 13:30:00 UTC,2444955.062500,29.6417,-93.6667,0076,1.69,-3.63,4.0000,155.0000
1981-12-16 14:00:00 UTC,2444955.083333,29.6417,-93.6667,0076,1.45,-5.82,6.0000,166.0000
1981-12-16 14:30:00 UTC,2444955.104167,29.6417,-93.6667,0076,0.97,-7.94,8.0000,173.0000
1981-12-16 15:00:00 UTC,2444955.125000,29.6417,-93.6667,0076,0.14,-8.00,8.0000,179.0000
1981-12-16 15:30:00 UTC,2444955.145833,29.6417,-93.6667,0076,-0.85,-6.95,7.0000,187.0000
1981-12-16 16:00:00 UTC,2444955.166667,29.6417,-93.6667,0076,-2.07,-7.73,8.0000,195.0000
1981-12-16 16:30:00 UTC,2444955.187500,29.6417,-93.6667,0076,-3.52,-8.28,9.0000,203.0000
1981-12-16 17:00:00 UTC,2444955.208333,29.6417,-93.6667,0076,-5.45,-8.39,10.0000,213.0000
1981-12-16 17:30:00 UTC,2444955.229167,29.6417,-93.6667,0076,-6.56,-7.55,10.0000,221.0000
1981-12-16 18:00:00 UTC,2444955.250000,29.6417,-93.6667,0076,-7.07,-7.07,10.0000,225.0000
1981-12-16 18:30:00 UTC,2444955.270833,29.6417,-93.6667,0076,-8.04,-7.50,11.0000,227.0000
1981-12-16 19:00:00 UTC,2444955.291667,29.6417,-93.6667,0076,-9.58,-7.22,12.0000,233.0000
1981-12-16 19:30:00 UTC,2444955.312500,29.6417,-93.6667,0076,-10.50,-5.82,12.0000,241.0000
1981-12-16 20:00:00 UTC,2444955.333333,29.6417,-93.6667,0076,-11.20,-4.30,12.0000,249.0000
1981-12-16 20:30:00 UTC,2444955.354167,29.6417,-93.6667,0076,-10.83,-1.91,11.0000,260.0000
1981-12-16 21:00:00 UTC,2444955.375000,29.6417,-93.6667,0076,-11.00,-0.00,11.0000,270.0000
1981-12-16 21:30:00 UTC,2444955.395833,29.6417,-93.6667,0076,-10.96,0.96,11.0000,275.0000
1981-12-16 22:00:00 UTC,2444955.416667,29.6417,-93.6667,0076,-11.74,2.49,12.0000,282.0000
1981-12-16 22:30:00 UTC,2444955.437500,29.6417,-93.6667,0076,-11.20,4.30,12.0000,291.0000
1981-12-16 23:00:00 UTC,2444955.458333,29.6417,-93.6667,0076,-10.88,5.07,12.0000,295.0000
1981-12-16 23:30:00 UTC,2444955.479167,29.6417,-93.6667,0076,-10.96,4.88,12.0000,294.0000
1981-12-17 00:00:00 UTC,2444955.500000,29.6417,-93.6667,0076,-12.22,4.45,13.0000,290.0000
1981-12-17 00:30:00 UTC,2444955.520833,29.6417,-93.6667,0076,-13.31,4.33,14.0000,288.0000
1981-12-17 01:00:00 UTC,2444955.541667,29.6417,-93.6667,0076,-14.55,3.63,15.0000,284.0000
1981-12-17 01:30:00 UTC,2444955.562500,29.6417,-93.6667,0076,-14.72,2.86,15.0000,281.0000
1981-12-17 02:00:00 UTC,2444955.583333,29.6417,-93.6667,0076,-13.90,1.71,14.0000,277.0000
1981-12-17 02:30:00 UTC,2444955.604167,29.6417,-93.6667,0076,-14.00,-0.00,14.0000,270.0000
1981-12-17 03:00:00 UTC,2444955.625000,29.6417,-93.6667,0076,-14.94,-1.31,15.0000,265.0000
1981-12-17 03:30:00 UTC,2444955.645833,29.6417,-93.6667,0076,-14.92,-1.57,15.0000,264.0000
1981-12-17 04:00:00 UTC,2444955.666667,29.6417,-93.6667,0076,-11.85,-1.88,12.0000,261.0000
1981-12-17 04:30:00 UTC,2444955.687500,29.6417,-93.6667,0076,-9.34,-3.58,10.0000,249.0000
1981-12-17 05:00:00 UTC,2444955.708333,29.6417,-93.6667,0076,-7.79,-4.50,9.0000,240.0000
1981-12-17 05:30:00 UTC,2444955.729167,29.6417,-93.6667,0076,-8.16,-3.80,9.0000,245.0000
1981-12-17 06:00:00 UTC,2444955.750000,29.6417,-93.6667,0076,-8.69,-2.33,9.0000,255.0000
1981-12-17 06:30:00 UTC,2444955.770833,29.6417,-93.6667,0076,-10.98,-0.58,11.0000,267.0000
1981-12-17 07:00:00 UTC,2444955.791667,29.6417,-93.6667,0076,-12.87,1.81,13.0000,278.0000
1981-12-17 07:30:00 UTC,2444955.812500,29.6417,-93.6667,0076,-11.41,3.71,12.0000,288.0000
1981-12-17 08:00:00 UTC,2444955.833333,29.6417,-93.6667,0076,-8.16,3.80,9.0000,295.0000
1981-12-17 08:30:00 UTC,2444955.854167,29.6417,-93.6667,0076,-4.49,2.19,5.0000,296.0000
1981-12-17 09:00:00 UTC,2444955.875000,29.6417,-93.6667,0076,-1.94,0.48,2.0000,284.0000
1981-12-17 09:30:00 UTC,2444955.895833,29.6417,-93.6667,0076,0.00,0.00,0.0000,63.0000
1981-12-17 10:00:00 UTC,2444955.916667,29.6417,-93.6667,0076,0.39,0.92,1.0000,23.0000
1981-12-17 10:30:00 UTC,2444955.937500,29.6417,-93.6667,0076,0.52,1.93,2.0000,15.0000
1981-12-17 11:00:00 UTC,2444955.958333,29.6417,-93.6667,0076,0.16,0.99,1.0000,9.0000
1981-12-17 11:30:00 UTC,2444955.979167,29.6417,-93.6667,0076,-0.45,0.89,1.0000,333.0000
1981-12-17 12:00:00 UTC,2444956.000000,29.6417,-93.6667,0076,-1.64,1.15,2.0000,305.0000
1981-12-17 12:30:00 UTC,2444956.020833,29.6417,-93.6667,0076,-2.67,1.36,3.0000,297.0000
1981-12-17 13:00:00 UTC,2444956.041667,29.6417,-93.6667,0076,-2.74,1.22,3.0000,294.0000
1981-12-17 13:30:00 UTC,2444956.062500,29.6417,-93.6667,0076,-2.05,2.19,3.0000,317.0000
1981-12-17 14:00:00 UTC,2444956.083333,29.6417,-93.6667,0076,-1.87,4.64,5.0000,338.0000
1981-12-17 14:30:00 UTC,2444956.104167,29.6417,-93.6667,0076,-1.34,6.87,7.0000,349.0000
1981-12-17 15:00:00 UTC,2444956.125000,29.6417,-93.6667,0076,-0.42,7.99,8.0000,357.0000
1981-12-17 15:30:00 UTC,2444956.145833,29.6417,-93.6667,0076,-0.63,8.98,9.0000,356.0000
1981-12-17 16:00:00 UTC,2444956.166667,29.6417,-93.6667,0076,-2.78,8.56,9.0000,342.0000
1981-12-17 16:30:00 UTC,2444956.187500,29.6417,-93.6667,0076,-5.03,7.46,9.0000,326.0000
1981-12-17 17:00:00 UTC,2444956.208333,29.6417,-93.6667,0076,-5.75,5.56,8.0000,314.0000
1981-12-17 17:30:00 UTC,2444956.229167,29.6417,-93.6667,0076,-7.13,3.63,8.0000,297.0000
1981-12-17 18:00:00 UTC,2444956.250000,29.6417,-93.6667,0076,-7.90,1.25,8.0000,279.0000
1981-12-17 18:30:00 UTC,2444956.270833,29.6417,-93.6667,0076,-8.99,-0.47,9.0000,267.0000
1981-12-17 19:00:00 UTC,2444956.291667,29.6417,-93.6667,0076,-9.88,-1.56,10.0000,261.0000
1981-12-17 19:30:00 UTC,2444956.312500,29.6417,-93.6667,0076,-10.94,-1.15,11.0000,264.0000
1981-12-17 20:00:00 UTC,2444956.333333,29.6417,-93.6667,0076,-12.00,-0.21,12.0000,269.0000
1981-12-17 20:30:00 UTC,2444956.354167,29.6417,-93.6667,0076,-12.97,0.91,13.0000,274.0000
1981-12-17 21:00:00 UTC,2444956.375000,29.6417,-93.6667,0076,-12.80,2.26,13.0000,280.0000
1981-12-17 21:30:00 UTC,2444956.395833,29.6417,-93.6667,0076,-11.48,3.51,12.0000,287.0000
1981-12-17 22:00:00 UTC,2444956.416667,29.6417,-93.6667,0076,-10.13,4.30,11.0000,293.0000
1981-12-17 22:30:00 UTC,2444956.437500,29.6417,-93.6667,0076,-9.71,5.16,11.0000,298.0000
1981-12-17 23:00:00 UTC,2444956.458333,29.6417,-93.6667,0076,-8.66,5.00,10.0000,300.0000
1981-12-17 23:30:00 UTC,2444956.479167,29.6417,-93.6667,0076,-8.91,4.54,10.0000,297.0000
1981-12-18 00:00:00 UTC,2444956.500000,29.6417,-93.6667,0076,-8.91,4.54,10.0000,297.0000
1981-12-18 00:30:00 UTC,2444956.520833,29.6417,-93.6667,0076,-11.05,4.69,12.0000,293.0000
1981-12-18 01:00:00 UTC,2444956.541667,29.6417,-93.6667,0076,-12.56,3.36,13.0000,285.0000
1981-12-18 01:30:00 UTC,2444956.562500,29.6417,-93.6667,0076,-12.67,2.92,13.0000,283.0000
1981-12-18 02:00:00 UTC,2444956.583333,29.6417,-93.6667,0076,-12.72,2.70,13.0000,282.0000
1981-12-18 02:30:00 UTC,2444956.604167,29.6417,-93.6667,0076,-12.87,1.81,13.0000,278.0000
1981-12-18 03:00:00 UTC,2444956.625000,29.6417,-93.6667,0076,-12.99,0.45,13.0000,272.0000
1981-12-18 03:30:00 UTC,2444956.645833,29.6417,-93.6667,0076,-12.99,-0.45,13.0000,268.0000
1981-12-18 04:00:00 UTC,2444956.666667,29.6417,-93.6667,0076,-10.97,-0.77,11.0000,266.0000
1981-12-18 04:30:00 UTC,2444956.687500,29.6417,-93.6667,0076,-8.93,-1.10,9.0000,263.0000
1981-12-18 05:00:00 UTC,2444956.708333,29.6417,-93.6667,0076,-8.73,-2.18,9.0000,256.0000
1981-12-18 05:30:00 UTC,2444956.729167,29.6417,-93.6667,0076,-7.56,-2.60,8.0000,251.0000
1981-12-18 06:00:00 UTC,2444956.750000,29.6417,-93.6667,0076,-6.66,-2.16,7.0000,252.0000
1981-12-18 06:30:00 UTC,2444956.770833,29.6417,-93.6667,0076,-4.64,-1.87,5.0000,248.0000
1981-12-18 07:00:00 UTC,2444956.791667,29.6417,-93.6667,0076,-4.24,-2.65,5.0000,238.0000
1981-12-18 07:30:00 UTC,2444956.812500,29.6417,-93.6667,0076,-4.91,-3.44,6.0000,235.0000
1981-12-18 08:00:00 UTC,2444956.833333,29.6417,-93.6667,0076,-4.37,-2.42,5.0000,241.0000
1981-12-18 08:30:00 UTC,2444956.854167,29.6417,-93.6667,0076,-3.93,-0.76,4.0000,259.0000
1981-12-18 09:00:00 UTC,2444956.875000,29.6417,-93.6667,0076,-3.98,0.42,4.0000,276.0000
1981-12-18 09:30:00 UTC,2444956.895833,29.6417,-93.6667,0076,-4.87,1.12,5.0000,283.0000
1981-12-18 10:00:00 UTC,2444956.916667,29.6417,-93.6667,0076,-3.80,1.24,4.0000,288.0000
1981-12-18 10:30:00 UTC,2444956.937500,29.6417,-93.6667,0076,-2.36,1.85,3.0000,308.0000
1981-12-18 11:00:00 UTC,2444956.958333,29.6417,-93.6667,0076,-1.34,1.49,2.0000,318.0000
1981-12-18 11:30:00 UTC,2444956.979167,29.6417,-93.6667,0076,-0.87,0.50,1.0000,300.0000
1981-12-18 12:00:00 UTC,2444957.000000,29.6417,-93.6667,0076,-0.63,0.78,1.0000,321.0000
1981-12-18 12:30:00 UTC,2444957.020833,29.6417,-93.6667,0076,-0.78,1.84,2.0000,337.0000
1981-12-18 13:00:00 UTC,2444957.041667,29.6417,-93.6667,0076,-1.12,1.66,2.0000,326.0000
1981-12-18 13:30:00 UTC,2444957.062500,29.6417,-93.6667,0076,-2.16,2.08,3.0000,314.0000
1981-12-18 14:00:00 UTC,2444957.083333,29.6417,-93.6667,0076,-2.65,1.41,3.0000,298.0000
1981-12-18 14:30:00 UTC,2444957.104167,29.6417,-93.6667,0076,-2.91,0.73,3.0000,284.0000
1981-12-18 15:00:00 UTC,2444957.125000,29.6417,-93.6667,0076,-2.97,0.42,3.0000,278.0000
1981-12-18 15:30:00 UTC,2444957.145833,29.6417,-93.6667,0076,-2.99,0.26,3.0000,275.0000
1981-12-18 16:00:00 UTC,2444957.166667,29.6417,-93.6667,0076,-0.99,0.14,1.0000,278.0000
1981-12-18 16:30:00 UTC,2444957.187500,29.6417,-93.6667,0076,-0.00,0.00,0.0000,330.0000
1981-12-18 17:00:00 UTC,2444957.208333,29.6417,-93.6667,0076,-0.10,0.99,1.0000,354.0000
1981-12-18 17:30:00 UTC,2444957.229167,29.6417,-93.6667,0076,-0.24,0.97,1.0000,346.0000
1981-12-18 18:00:00 UTC,2444957.250000,29.6417,-93.6667,0076,0.95,0.33,1.0000,71.0000
1981-12-18 18:30:00 UTC,2444957.270833,29.6417,-93.6667,0076,1.99,0.17,2.0000,85.0000
1981-12-18 19:00:00 UTC,2444957.291667,29.6417,-93.6667,0076,3.00,-0.10,3.0000,92.0000
1981-12-18 19:30:00 UTC,2444957.312500,29.6417,-93.6667,0076,2.93,-0.62,3.0000,102.0000
1981-12-18 20:00:00 UTC,2444957.333333,29.6417,-93.6667,0076,1.66,-1.12,2.0000,124.0000
1981-12-18 20:30:00 UTC,2444957.354167,29.6417,-93.6667,0076,1.06,-1.70,2.0000,148.0000
1981-12-18 21:00:00 UTC,2444957.375000,29.6417,-93.6667,0076,0.29,-0.96,1.0000,163.0000
1981-12-18 21:30:00 UTC,2444957.395833,29.6417,-93.6667,0076,0.50,-0.87,1.0000,150.0000
1981-12-18 22:00:00 UTC,2444957.416667,29.6417,-93.6667,0076,0.00,0.00,0.0000,83.0000
1981-12-18 22:30:00 UTC,2444957.437500,29.6417,-93.6667,0076,0.72,0.69,1.0000,46.0000
1981-12-18 23:00:00 UTC,2444957.458333,29.6417,-93.6667,0076,1.68,1.09,2.0000,57.0000
1981-12-18 23:30:00 UTC,2444957.479167,29.6417,-93.6667,0076,3.78,1.30,4.0000,71.0000
1981-12-19 00:00:00 UTC,2444957.500000,29.6417,-93.6667,0076,4.78,1.46,5.0000,73.0000
1981-12-19 00:30:00 UTC,2444957.520833,29.6417,-93.6667,0076,2.82,1.03,3.0000,70.0000
1981-12-19 01:00:00 UTC,2444957.541667,29.6417,-93.6667,0076,0.95,0.33,1.0000,71.0000
1981-12-19 01:30:00 UTC,2444957.562500,29.6417,-93.6667,0076,-0.00,0.00,0.0000,332.0000
1981-12-19 02:00:00 UTC,2444957.583333,29.6417,-93.6667,0076,-0.73,0.68,1.0000,313.0000
1981-12-19 02:30:00 UTC,2444957.604167,29.6417,-93.6667,0076,-0.52,0.86,1.0000,329.0000
1981-12-19 03:00:00 UTC,2444957.625000,29.6417,-93.6667,0076,-0.64,0.77,1.0000,320.0000
1981-12-19 03:30:00 UTC,2444957.645833,29.6417,-93.6667,0076,-1.00,0.03,1.0000,272.0000
1981-12-19 04:00:00 UTC,2444957.666667,29.6417,-93.6667,0076,-1.99,-0.21,2.0000,264.0000
1981-12-19 04:30:00 UTC,2444957.687500,29.6417,-93.6667,0076,-2.92,-0.67,3.0000,257.0000
1981-12-19 05:00:00 UTC,2444957.708333,29.6417,-93.6667,0076,-2.82,-1.03,3.0000,250.0000
1981-12-19 05:30:00 UTC,2444957.729167,29.6417,-93.6667,0076,-3.73,-1.43,4.0000,249.0000
1981-12-19 06:00:00 UTC,2444957.750000,29.6417,-93.6667,0076,-3.56,-1.82,4.0000,243.0000
1981-12-19 06:30:00 UTC,2444957.770833,29.6417,-93.6667,0076,-4.29,-2.58,5.0000,239.0000
1981-12-19 07:00:00 UTC,2444957.791667,29.6417,-93.6667,0076,-4.33,-2.50,5.0000,240.0000
1981-12-19 07:30:00 UTC,2444957.812500,29.6417,-93.6667,0076,-5.87,-3.81,7.0000,237.0000
1981-12-19 08:00:00 UTC,2444957.833333,29.6417,-93.6667,0076,-6.39,-4.81,8.0000,233.0000
1981-12-19 08:30:00 UTC,2444957.854167,29.6417,-93.6667,0076,-7.19,-5.42,9.0000,233.0000
1981-12-19 09:00:00 UTC,2444957.875000,29.6417,-93.6667,0076,-7.71,-4.64,9.0000,239.0000
1981-12-19 09:30:00 UTC,2444957.895833,29.6417,-93.6667,0076,-6.93,-4.00,8.0000,240.0000
1981-12-19 10:00:00 UTC,2444957.916667,29.6417,-93.6667,0076,-5.66,-4.11,7.0000,234.0000
1981-12-19 10:30:00 UTC,2444957.937500,29.6417,-93.6667,0076,-5.03,-3.27,6.0000,237.0000
1981-12-19 11:00:00 UTC,2444957.958333,29.6417,-93.6667,0076,-6.58,-2.39,7.0000,250.0000
1981-12-19 11:30:00 UTC,2444957.979167,29.6417,-93.6667,0076,-7.90,-1.25,8.0000,261.0000
1981-12-19 12:00:00 UTC,2444958.000000,29.6417,-93.6667,0076,-8.97,-0.78,9.0000,265.0000
1981-12-19 12:30:00 UTC,2444958.020833,29.6417,-93.6667,0076,-9.98,-0.70,10.0000,266.0000
1981-12-19 13:00:00 UTC,2444958.041667,29.6417,-93.6667,0076,-10.99,-0.38,11.0000,268.0000
1981-12-19 13:30:00 UTC,2444958.062500,29.6417,-93.6667,0076,-12.00,0.21,12.0000,271.0000
1981-12-19 14:00:00 UTC,2444958.083333,29.6417,-93.6667,0076,-13.00,0.23,13.0000,271.0000
1981-12-19 14:30:00 UTC,2444958.104167,29.6417,-93.6667,0076,-15.00,-0.00,15.0000,270.0000
1981-12-19 15:00:00 UTC,2444958.125000,29.6417,-93.6667,0076,-16.00,-0.00,16.0000,270.0000
1981-12-19 15:30:00 UTC,2444958.145833,29.6417,-93.6667,0076,-18.00,-0.00,18.0000,270.0000
1981-12-19 16:00:00 UTC,2444958.166667,29.6417,-93.6667,0076,-19.00,-0.33,19.0000,269.0000
1981-12-19 16:30:00 UTC,2444958.187500,29.6417,-93.6667,0076,-19.99,-0.70,20.0000,268.0000
1981-12-19 17:00:00 UTC,2444958.208333,29.6417,-93.6667,0076,-18.99,-0.66,19.0000,268.0000
1981-12-19 17:30:00 UTC,2444958.229167,29.6417,-93.6667,0076,-17.99,-0.63,18.0000,268.0000
1981-12-19 18:00:00 UTC,2444958.250000,29.6417,-93.6667,0076,-16.00,-0.28,16.0000,269.0000
1981-12-19 18:30:00 UTC,2444958.270833,29.6417,-93.6667,0076,-13.99,-0.49,14.0000,268.0000
1981-12-19 19:00:00 UTC,2444958.291667,29.6417,-93.6667,0076,-12.84,-2.03,13.0000,261.0000
1981-12-19 19:30:00 UTC,2444958.312500,29.6417,-93.6667,0076,-13.58,-3.39,14.0000,256.0000
1981-12-19 20:00:00 UTC,2444958.333333,29.6417,-93.6667,0076,-13.69,-2.91,14.0000,258.0000
1981-12-19 20:30:00 UTC,2444958.354167,29.6417,-93.6667,0076,-14.82,-2.35,15.0000,261.0000
1981-12-19 21:00:00 UTC,2444958.375000,29.6417,-93.6667,0076,-14.89,-1.83,15.0000,263.0000
1981-12-19 21:30:00 UTC,2444958.395833,29.6417,-93.6667,0076,-14.92,-1.57,15.0000,264.0000
1981-12-19 22:00:00 UTC,2444958.416667,29.6417,-93.6667,0076,-15.94,-1.39,16.0000,265.0000
1981-12-19 22:30:00 UTC,2444958.437500,29.6417,-93.6667,0076,-16.94,-1.48,17.0000,265.0000
1981-12-19 23:00:00 UTC,2444958.458333,29.6417,-93.6667,0076,-16.99,-0.59,17.0000,268.0000
1981-12-19 23:30:00 UTC,2444958.479167,29.6417,-93.6667,0076,-14.94,1.31,15.0000,275.0000
1981-12-20 00:00:00 UTC,2444958.500000,29.6417,-93.6667,0076,-11.74,2.49,12.0000,282.0000
1981-12-20 00:30:00 UTC,2444958.520833,29.6417,-93.6667,0076,-9.90,1.39,10.0000,278.0000
1981-12-20 01:00:00 UTC,2444958.541667,29.6417,-93.6667,0076,-8.97,-0.78,9.0000,265.0000
1981-12-20 01:30:00 UTC,2444958.562500,29.6417,-93.6667,0076,-11.85,-1.88,12.0000,261.0000
1981-12-20 02:00:00 UTC,2444958.583333,29.6417,-93.6667,0076,-13.86,-1.95,14.0000,262.0000
1981-12-20 02:30:00 UTC,2444958.604167,29.6417,-93.6667,0076,-14.92,-1.57,15.0000,264.0000
1981-12-20 03:00:00 UTC,2444958.625000,29.6417,-93.6667,0076,-15.91,-1.67,16.0000,264.0000
1981-12-20 03:30:00 UTC,2444958.645833,29.6417,-93.6667,0076,-16.79,-2.66,17.0000,261.0000
1981-12-20 04:00:00 UTC,2444958.666667,29.6417,-93.6667,0076,-18.71,-3.30,19.0000,260.0000
1981-12-20 04:30:00 UTC,2444958.687500,29.6417,-93.6667,0076,-18.90,-1.99,19.0000,264.0000
1981-12-20 05:00:00 UTC,2444958.708333,29.6417,-93.6667,0076,-16.96,-1.19,17.0000,266.0000
1981-12-20 05:30:00 UTC,2444958.729167,29.6417,-93.6667,0076,-15.76,-2.78,16.0000,260.0000
1981-12-20 06:00:00 UTC,2444958.750000,29.6417,-93.6667,0076,-15.45,-4.14,16.0000,255.0000
1981-12-20 06:30:00 UTC,2444958.770833,29.6417,-93.6667,0076,-14.18,-4.88,15.0000,251.0000
1981-12-20 07:00:00 UTC,2444958.791667,29.6417,-93.6667,0076,-13.91,-5.62,15.0000,248.0000
1981-12-20 07:30:00 UTC,2444958.812500,29.6417,-93.6667,0076,-15.04,-5.47,16.0000,250.0000
1981-12-20 08:00:00 UTC,2444958.833333,29.6417,-93.6667,0076,-16.26,-4.97,17.0000,253.0000
1981-12-20 08:30:00 UTC,2444958.854167,29.6417,-93.6667,0076,-16.50,-4.11,17.0000,256.0000
1981-12-20 09:00:00 UTC,2444958.875000,29.6417,-93.6667,0076,-15.65,-3.33,16.0000,258.0000
1981-12-20 09:30:00 UTC,2444958.895833,29.6417,-93.6667,0076,-14.77,-2.60,15.0000,260.0000
1981-12-20 10:00:00 UTC,2444958.916667,29.6417,-93.6667,0076,-15.84,-2.23,16.0000,262.0000
1981-12-20 10:30:00 UTC,2444958.937500,29.6417,-93.6667,0076,-14.85,-2.09,15.0000,262.0000
1981-12-20 11:00:00 UTC,2444958.958333,29.6417,-93.6667,0076,-14.85,-2.09,15.0000,262.0000
1981-12-20 11:30:00 UTC,2444958.979167,29.6417,-93.6667,0076,-15.91,-1.67,16.0000,264.0000
1981-12-20 12:00:00 UTC,2444959.000000,29.6417,-93.6667,0076,-17.99,-0.63,18.0000,268.0000
1981-12-20 12:30:00 UTC,2444959.020833,29.6417,-93.6667,0076,-19.00,-0.00,19.0000,270.0000
1981-12-20 13:00:00 UTC,2444959.041667,29.6417,-93.6667,0076,-19.00,-0.33,19.0000,269.0000
1981-12-20 13:30:00 UTC,2444959.062500,29.6417,-93.6667,0076,-21.00,0.37,21.0000,271.0000
1981-12-20 14:00:00 UTC,2444959.083333,29.6417,-93.6667,0076,-22.97,1.20,23.0000,273.0000
1981-12-20 14:30:00 UTC,2444959.104167,29.6417,-93.6667,0076,-25.00,0.44,25.0000,271.0000
1981-12-20 15:00:00 UTC,2444959.125000,29.6417,-93.6667,0076,-26.00,-0.45,26.0000,269.0000
1981-12-20 15:30:00 UTC,2444959.145833,29.6417,-93.6667,0076,-27.00,-0.47,27.0000,269.0000
1981-12-20 16:00:00 UTC,2444959.166667,29.6417,-93.6667,0076,-27.96,-1.47,28.0000,267.0000
1981-12-20 16:30:00 UTC,2444959.187500,29.6417,-93.6667,0076,-28.84,-3.03,29.0000,264.0000
1981-12-20 17:00:00 UTC,2444959.208333,29.6417,-93.6667,0076,-30.83,-3.24,31.0000,264.0000
1981-12-20 17:30:00 UTC,2444959.229167,29.6417,-93.6667,0076,-31.96,-1.67,32.0000,267.0000
1981-12-20 18:00:00 UTC,2444959.250000,29.6417,-93.6667,0076,-32.00,-0.00,32.0000,270.0000
1981-12-20 18:30:00 UTC,2444959.270833,29.6417,-93.6667,0076,-32.00,-0.56,32.0000,269.0000
1981-12-20 19:00:00 UTC,2444959.291667,29.6417,-93.6667,0076,-32.92,-2.30,33.0000,266.0000
1981-12-20 19:30:00 UTC,2444959.312500,29.6417,-93.6667,0076,-32.87,-2.88,33.0000,265.0000
1981-12-20 20:00:00 UTC,2444959.333333,29.6417,-93.6667,0076,-31.61,-5.01,32.0000,261.0000
1981-12-20 20:30:00 UTC,2444959.354167,29.6417,-93.6667,0076,-32.99,-8.23,34.0000,256.0000
1981-12-20 21:00:00 UTC,2444959.375000,29.6417,-93.6667,0076,-34.77,-9.32,36.0000,255.0000
1981-12-20 21:30:00 UTC,2444959.395833,29.6417,-93.6667,0076,-32.99,-8.23,34.0000,256.0000
1981-12-20 22:00:00 UTC,2444959.416667,29.6417,-93.6667,0076,-33.47,-10.23,35.0000,253.0000
1981-12-20 22:30:00 UTC,2444959.437500,29.6417,-93.6667,0076,-36.71,-9.84,38.0000,255.0000
1981-12-20 23:00:00 UTC,2444959.458333,29.6417,-93.6667,0076,-37.03,-8.55,38.0000,257.0000
1981-12-20 23:30:00 UTC,2444959.479167,29.6417,-93.6667,0076,-36.87,-9.19,38.0000,256.0000
1981-12-21 00:00:00 UTC,2444959.500000,29.6417,-93.6667,0076,-38.45,-11.03,40.0000,254.0000
1981-12-21 00:30:00 UTC,2444959.520833,29.6417,-93.6667,0076,-40.37,-11.58,42.0000,254.0000
1981-12-21 01:00:00 UTC,2444959.541667,29.6417,-93.6667,0076,-40.57,-10.87,42.0000,255.0000
1981-12-21 01:30:00 UTC,2444959.562500,29.6417,-93.6667,0076,-39.41,-11.30,41.0000,254.0000
1981-12-21 02:00:00 UTC,2444959.583333,29.6417,-93.6667,0076,-39.21,-11.99,41.0000,253.0000
1981-12-21 02:30:00 UTC,2444959.604167,29.6417,-93.6667,0076,-40.37,-11.58,42.0000,254.0000
1981-12-21 03:00:00 UTC,2444959.625000,29.6417,-93.6667,0076,-41.53,-11.13,43.0000,255.0000
1981-12-21 03:30:00 UTC,2444959.645833,29.6417,-93.6667,0076,-42.30,-12.13,44.0000,254.0000
1981-12-21 04:00:00 UTC,2444959.666667,29.6417,-93.6667,0076,-43.26,-12.40,45.0000,254.0000
1981-12-21 04:30:00 UTC,2444959.687500,29.6417,-93.6667,0076,-42.50,-11.39,44.0000,255.0000
1981-12-21 05:00:00 UTC,2444959.708333,29.6417,-93.6667,0076,-40.75,-10.16,42.0000,256.0000
1981-12-21 05:30:00 UTC,2444959.729167,29.6417,-93.6667,0076,-39.78,-9.92,41.0000,256.0000
1981-12-21 06:00:00 UTC,2444959.750000,29.6417,-93.6667,0076,-38.25,-11.69,40.0000,253.0000
1981-12-21 06:30:00 UTC,2444959.770833,29.6417,-93.6667,0076,-35.93,-12.37,38.0000,251.0000
1981-12-21 07:00:00 UTC,2444959.791667,29.6417,-93.6667,0076,-34.54,-13.26,37.0000,249.0000
1981-12-21 07:30:00 UTC,2444959.812500,29.6417,-93.6667,0076,-33.14,-14.07,36.0000,247.0000
1981-12-21 08:00:00 UTC,2444959.833333,29.6417,-93.6667,0076,-32.89,-14.64,36.0000,246.0000
1981-12-21 08:30:00 UTC,2444959.854167,29.6417,-93.6667,0076,-31.97,-14.24,35.0000,246.0000
1981-12-21 09:00:00 UTC,2444959.875000,29.6417,-93.6667,0076,-31.30,-13.28,34.0000,247.0000
1981-12-21 09:30:00 UTC,2444959.895833,29.6417,-93.6667,0076,-30.60,-12.36,33.0000,248.0000
1981-12-21 10:00:00 UTC,2444959.916667,29.6417,-93.6667,0076,-29.46,-12.50,32.0000,247.0000
1981-12-21 10:30:00 UTC,2444959.937500,29.6417,-93.6667,0076,-28.54,-12.11,31.0000,247.0000
1981-12-21 11:00:00 UTC,2444959.958333,29.6417,-93.6667,0076,-26.89,-10.86,29.0000,248.0000
1981-12-21 11:30:00 UTC,2444959.979167,29.6417,-93.6667,0076,-26.14,-10.03,28.0000,249.0000
1981-12-21 12:00:00 UTC,2444960.000000,29.6417,-93.6667,0076,-25.53,-8.79,27.0000,251.0000